TJS-3 (43874 NORAD) Tracking and Keplerian Element Data

This shows tracking and keplerian element data for the satellite.

Feedback or suggestion? Click here.




ElementValue
Catalog43874
NameTJS-3
Epoch Orbit2242
Epoch Day34.71302634
Epoch Year2025
RAAN86.572
Inclination1.254
Eccentricity0.0001569
Argument of Perigee49.2086
Mean Anonmoly43.5006
Mean Motion1.00270995
Decay Rate-2.11E-06
L11 43874U 18110A 25034.71302634 -.00000211 00000+0 00000+0 0 9990
L22 43874 1.2540 86.5720 0001569 49.2086 43.5006 1.00270995 22429



Live tracking and technical data element details for TJS-3 (NORAD 43874). TJS-3 can be tracked NOW for your location showing map with azimuth and elevation plus other details from your city location.







IsCatalogInMostPopularTable: catalog: 43874, numindb: 306
Update: records affected: 1



GetName: 43874 TJS-3

Hit Count: updated at: Thu, 15 May 2025 18:35:54 GMT